contact:dominique.lefevre@mio.osupytheas.fr, maurice.libes@osupytheas.fr, didier.mallarino@osupytheas.fr
Project:EMSO http://www.emso-fr.org/EMSO-France
Depth: 2436.0 m
Title:EMSO Ligure Ouest : Data MII capteur AQUADOPP
Date,Latitude,Longitude,X_East,Y_North,Z_Up,Amplitude_X,Amplitude_Y,Amplitude_Z,Batterie,SoundSpeed,Heading,Pitch,Roll,Pressure,TIS,Speed,Direction
, degrees North, degrees East, m.s-1, m.s-1,m.s-1, 1, 1, 1, Volt, m.s-1, degree, degree, degree, dbar, degree_C, m.s-1, degree
2022-03-09T00:04:03,42.805,6.029,0.051,-0.022,-0.016,102.0,103.0,101.0,13.4,1505.2,331.2,-0.8,1.8,2470.812,13.28,0.055,113.3
2022-03-09T00:07:03,42.805,6.029,0.031,-0.019,-0.022,103.0,103.0,101.0,13.3,1505.2,328.3,-0.8,1.8,2470.835,13.28,0.036,121.5
2022-03-09T00:10:03,42.805,6.029,0.039,-0.011,0.021,102.0,103.0,101.0,13.4,1505.2,327.8,-0.7,1.8,2470.848,13.28,0.04,105.7
2022-03-09T00:13:03,42.805,6.029,0.033,-0.024,-0.021,102.0,103.0,102.0,13.4,1505.2,326.1,-0.7,1.8,2470.838,13.28,0.04,126.0
2022-03-09T00:16:03,42.805,6.029,0.057,-0.014,0.017,102.0,103.0,101.0,13.3,1505.2,331.3,-0.7,1.8,2470.781,13.28,0.058,103.8
2022-03-09T00:19:03,42.805,6.029,0.028,0.0,-0.014,102.0,103.0,101.0,13.4,1505.2,329.1,-0.8,1.8,2470.841,13.28,0.028,90.0
2022-03-09T00:22:03,42.805,6.029,0.061,-0.015,0.021,101.0,103.0,102.0,13.4,1505.2,325.5,-0.8,1.8,2470.837,13.28,0.062,103.8
2022-03-09T00:25:03,42.805,6.029,0.051,-0.017,0.025,103.0,104.0,101.0,13.4,1505.2,328.3,-0.8,1.8,2470.767,13.28,0.053,108.4
2022-03-09T00:28:03,42.805,6.029,0.056,-0.02,-0.006,102.0,104.0,101.0,13.4,1505.2,330.8,-0.8,1.8,2470.804,13.28,0.059,109.6
2022-03-09T00:31:03,42.805,6.029,0.041,-0.028,-0.019,102.0,103.0,101.0,13.3,1505.2,328.6,-0.8,1.8,2470.818,13.28,0.049,124.3
2022-03-09T00:34:03,42.805,6.029,0.026,-0.014,-0.032,102.0,104.0,101.0,13.4,1505.2,327.5,-0.7,1.8,2470.79,13.28,0.029,118.3
2022-03-09T00:37:03,42.805,6.029,0.056,-0.039,-0.038,102.0,103.0,101.0,13.3,1505.2,331.3,-0.8,1.8,2470.804,13.28,0.068,124.9
2022-03-09T00:40:03,42.805,6.029,0.065,-0.001,-0.009,103.0,102.0,101.0,13.4,1505.2,327.8,-0.7,1.8,2470.758,13.28,0.065,90.9
2022-03-09T00:43:03,42.805,6.029,0.06,-0.011,0.026,101.0,104.0,102.0,13.4,1505.2,331.0,-0.8,1.8,2470.808,13.28,0.06,100.4
2022-03-09T00:46:03,42.805,6.029,0.046,-0.028,-0.005,103.0,102.0,101.0,13.4,1505.2,329.5,-0.7,1.8,2470.747,13.28,0.053,121.3
2022-03-09T00:49:03,42.805,6.029,0.06,-0.023,0.013,102.0,103.0,101.0,13.4,1505.2,331.6,-0.8,1.8,2470.802,13.28,0.064,111.0
2022-03-09T00:52:03,42.805,6.029,0.039,-0.022,-0.004,103.0,104.0,101.0,13.4,1505.2,330.9,-0.7,1.8,2470.762,13.28,0.044,119.4
2022-03-09T00:55:03,42.805,6.029,0.053,-0.005,0.02,102.0,103.0,100.0,13.4,1505.2,324.6,-0.7,1.8,2470.789,13.28,0.053,95.4
2022-03-09T00:58:03,42.805,6.029,0.058,-0.005,0.018,104.0,102.0,101.0,13.4,1505.2,324.4,-0.8,1.8,2470.772,13.28,0.058,94.9
2022-03-09T01:04:03,42.805,6.029,0.063,-0.018,-0.006,103.0,104.0,102.0,13.3,1505.2,327.8,-0.8,1.8,2470.821,13.28,0.065,105.9
2022-03-09T01:07:03,42.805,6.029,0.031,0.0,0.018,103.0,105.0,102.0,13.3,1505.2,325.7,-0.8,1.8,2470.815,13.28,0.03,90.0
2022-03-09T01:10:03,42.805,6.029,0.058,-0.022,-0.008,103.0,104.0,102.0,13.3,1505.2,327.6,-0.8,1.8,2470.822,13.28,0.062,110.8
2022-03-09T01:13:03,42.805,6.029,0.057,-0.01,-0.001,102.0,103.0,100.0,13.3,1505.2,324.3,-0.8,1.8,2470.769,13.28,0.057,99.9
2022-03-09T01:16:03,42.805,6.029,0.046,-0.025,0.0,102.0,104.0,102.0,13.4,1505.2,329.9,-0.8,1.8,2470.776,13.28,0.052,118.5
2022-03-09T01:19:03,42.805,6.029,0.056,-0.016,-0.034,102.0,101.0,101.0,13.4,1505.2,330.6,-0.8,1.8,2470.777,13.28,0.058,105.9
2022-03-09T01:22:03,42.805,6.029,0.058,-0.018,-0.018,102.0,104.0,102.0,13.4,1505.2,327.3,-0.7,1.8,2470.798,13.28,0.06,107.2
2022-03-09T01:25:03,42.805,6.029,0.038,-0.021,-0.011,102.0,103.0,102.0,13.3,1505.2,326.4,-0.8,1.8,2470.766,13.28,0.043,118.9
2022-03-09T01:28:03,42.805,6.029,0.061,-0.018,-0.002,102.0,102.0,101.0,13.3,1505.2,325.0,-0.8,1.8,2470.786,13.28,0.063,106.4
2022-03-09T01:31:03,42.805,6.029,0.086,0.0,0.014,102.0,103.0,101.0,13.3,1505.2,325.3,-0.8,1.8,2470.783,13.28,0.085,90.0
2022-03-09T01:34:03,42.805,6.029,0.052,-0.01,-0.004,103.0,103.0,102.0,13.3,1505.2,326.9,-0.8,1.8,2470.778,13.28,0.052,100.9
2022-03-09T01:37:03,42.805,6.029,0.059,-0.026,-0.003,103.0,103.0,100.0,13.4,1505.2,331.3,-0.7,1.8,2470.746,13.28,0.064,113.8
2022-03-09T01:40:03,42.805,6.029,0.039,-0.023,-0.004,103.0,103.0,102.0,13.3,1505.2,329.2,-0.7,1.8,2470.726,13.28,0.045,120.5
2022-03-09T01:43:03,42.805,6.029,0.058,-0.035,-0.017,101.0,103.0,102.0,13.4,1505.2,330.1,-0.8,1.8,2470.792,13.28,0.067,121.1
2022-03-09T01:46:03,42.805,6.029,0.064,-0.005,-0.007,103.0,104.0,101.0,13.4,1505.2,326.8,-0.7,1.8,2470.787,13.28,0.064,94.5
2022-03-09T01:49:03,42.805,6.029,0.057,-0.016,0.038,103.0,102.0,102.0,13.3,1505.2,329.4,-0.8,1.8,2470.753,13.28,0.059,105.7
2022-03-09T01:52:03,42.805,6.029,0.033,-0.031,-0.002,104.0,102.0,102.0,13.3,1505.2,328.8,-0.8,1.8,2470.787,13.28,0.045,133.2
2022-03-09T01:55:03,42.805,6.029,0.046,-0.01,-0.007,104.0,104.0,101.0,13.3,1505.2,328.0,-0.8,1.8,2470.738,13.28,0.047,102.3
2022-03-09T01:58:03,42.805,6.029,0.039,-0.006,-0.027,100.0,103.0,102.0,13.3,1505.2,322.7,-0.8,1.8,2470.752,13.28,0.039,98.7
2022-03-09T02:04:03,42.805,6.029,0.06,-0.024,0.011,102.0,104.0,102.0,13.3,1505.2,332.1,-0.7,1.8,2470.799,13.28,0.064,111.8
2022-03-09T02:07:03,42.805,6.029,0.055,-0.011,0.007,101.0,103.0,101.0,13.4,1505.2,325.6,-0.7,1.9,2470.823,13.28,0.056,101.3
2022-03-09T02:10:03,42.805,6.029,0.053,-0.016,-0.018,103.0,103.0,101.0,13.4,1505.2,329.3,-0.8,1.8,2470.763,13.28,0.055,106.8
2022-03-09T02:13:03,42.805,6.029,0.062,-0.016,0.019,103.0,103.0,101.0,13.4,1505.2,328.6,-0.7,1.8,2470.753,13.28,0.064,104.5
2022-03-09T02:16:03,42.805,6.029,0.05,-0.021,-0.031,102.0,103.0,101.0,13.4,1505.2,323.4,-0.8,1.8,2470.763,13.28,0.054,112.8
2022-03-09T02:19:03,42.805,6.029,0.064,-0.015,0.039,103.0,103.0,102.0,13.4,1505.2,328.6,-0.8,1.8,2470.727,13.28,0.065,103.2
2022-03-09T02:22:03,42.805,6.029,0.067,-0.027,0.021,103.0,103.0,100.0,13.4,1505.2,331.9,-0.8,1.8,2470.804,13.28,0.072,111.9
2022-03-09T02:25:03,42.805,6.029,0.07,-0.023,-0.019,102.0,103.0,101.0,13.4,1505.2,328.8,-0.8,1.8,2470.758,13.28,0.073,108.2
2022-03-09T02:28:03,42.805,6.029,0.044,-0.026,0.012,102.0,103.0,102.0,13.3,1505.2,328.8,-0.7,1.8,2470.736,13.28,0.051,120.6
2022-03-09T02:31:03,42.805,6.029,0.068,-0.01,-0.002,104.0,101.0,101.0,13.3,1505.2,325.3,-0.8,1.8,2470.748,13.28,0.068,98.4
2022-03-09T02:34:03,42.805,6.029,0.052,-0.012,0.01,103.0,102.0,100.0,13.3,1505.2,329.8,-0.7,1.8,2470.754,13.28,0.053,103.0
2022-03-09T02:37:03,42.805,6.029,0.058,-0.014,-0.011,101.0,103.0,101.0,13.4,1505.2,327.8,-0.8,1.8,2470.784,13.28,0.059,103.6
2022-03-09T02:40:03,42.805,6.029,0.052,-0.006,0.016,104.0,104.0,101.0,13.4,1505.2,325.7,-0.7,1.8,2470.749,13.28,0.052,96.6
2022-03-09T02:43:03,42.805,6.029,0.072,-0.041,0.01,101.0,104.0,101.0,13.4,1505.2,326.3,-0.8,1.8,2470.788,13.28,0.082,119.7
2022-03-09T02:46:03,42.805,6.029,0.056,-0.035,0.002,102.0,102.0,101.0,13.3,1505.2,329.0,-0.8,1.8,2470.752,13.28,0.066,122.0
2022-03-09T02:49:03,42.805,6.029,0.064,-0.034,0.008,102.0,103.0,103.0,13.4,1505.2,325.9,-0.8,1.8,2470.742,13.28,0.072,118.0
2022-03-09T02:52:03,42.805,6.029,0.05,-0.026,-0.01,101.0,103.0,101.0,13.4,1505.2,325.8,-0.8,1.8,2470.744,13.28,0.056,117.5
2022-03-09T02:55:03,42.805,6.029,0.058,-0.016,-0.002,102.0,105.0,101.0,13.4,1505.2,329.3,-0.7,1.8,2470.753,13.28,0.06,105.4
2022-03-09T02:58:03,42.805,6.029,0.035,-0.03,0.002,102.0,103.0,101.0,13.3,1505.2,329.4,-0.8,1.8,2470.73,13.28,0.046,130.6
2022-03-09T03:04:03,42.805,6.029,0.082,-0.032,0.011,102.0,102.0,102.0,13.4,1505.2,325.5,-0.8,1.8,2470.802,13.28,0.088,111.3
2022-03-09T03:07:03,42.805,6.029,0.06,-0.029,0.001,103.0,103.0,102.0,13.4,1505.2,326.1,-0.8,1.8,2470.745,13.28,0.066,115.8
2022-03-09T03:10:03,42.805,6.029,0.066,-0.024,-0.014,102.0,103.0,101.0,13.4,1505.2,328.5,-0.8,1.8,2470.77,13.28,0.07,110.0
2022-03-09T03:13:03,42.805,6.029,0.063,-0.011,0.015,100.0,103.0,102.0,13.4,1505.2,324.5,-0.7,1.8,2470.762,13.28,0.063,99.9
2022-03-09T03:16:03,42.805,6.029,0.053,-0.032,0.021,102.0,102.0,101.0,13.3,1505.2,329.3,-0.7,1.8,2470.742,13.28,0.061,121.1
2022-03-09T03:19:03,42.805,6.029,0.07,-0.03,-0.003,103.0,103.0,101.0,13.4,1505.2,329.0,-0.8,1.8,2470.776,13.28,0.076,113.2
2022-03-09T03:22:03,42.805,6.029,0.052,-0.027,-0.019,102.0,103.0,101.0,13.4,1505.2,324.3,-0.7,1.8,2470.747,13.28,0.058,117.4
2022-03-09T03:25:03,42.805,6.029,0.07,-0.016,0.01,102.0,102.0,101.0,13.4,1505.2,325.4,-0.8,1.8,2470.734,13.28,0.071,102.9
2022-03-09T03:28:03,42.805,6.029,0.058,-0.042,-0.025,102.0,103.0,101.0,13.3,1505.2,331.8,-0.8,1.9,2470.741,13.28,0.071,125.9
2022-03-09T03:31:03,42.805,6.029,0.06,-0.048,-0.017,102.0,102.0,101.0,13.3,1505.2,330.4,-0.7,1.8,2470.733,13.28,0.076,128.7
2022-03-09T03:34:03,42.805,6.029,0.104,-0.018,0.003,101.0,102.0,102.0,13.4,1505.2,323.8,-0.8,1.8,2470.775,13.28,0.105,99.8
2022-03-09T03:37:03,42.805,6.029,0.08,-0.024,-0.001,103.0,102.0,101.0,13.3,1505.2,326.0,-0.7,1.8,2470.729,13.28,0.083,106.7
2022-03-09T03:40:03,42.805,6.029,0.046,-0.027,-0.017,102.0,102.0,101.0,13.3,1505.2,325.8,-0.8,1.9,2470.746,13.28,0.053,120.4
2022-03-09T03:43:03,42.805,6.029,0.039,-0.02,-0.006,103.0,103.0,101.0,13.4,1505.2,324.9,-0.7,1.8,2470.73,13.28,0.043,117.1
2022-03-09T03:46:03,42.805,6.029,0.075,-0.03,-0.009,103.0,101.0,101.0,13.4,1505.2,326.5,-0.8,1.8,2470.698,13.28,0.08,111.8
2022-03-09T03:49:03,42.805,6.029,0.053,-0.006,-0.022,101.0,104.0,102.0,13.4,1505.2,324.4,-0.8,1.9,2470.734,13.28,0.053,96.5
2022-03-09T03:52:03,42.805,6.029,0.074,-0.026,-0.013,101.0,102.0,102.0,13.4,1505.2,326.1,-0.8,1.8,2470.722,13.28,0.078,109.4
2022-03-09T03:55:03,42.805,6.029,0.059,-0.035,-0.03,102.0,102.0,101.0,13.4,1505.2,324.8,-0.7,1.8,2470.689,13.28,0.068,120.7
2022-03-09T03:58:03,42.805,6.029,0.05,-0.03,-0.02,101.0,104.0,101.0,13.4,1505.2,329.3,-0.8,1.8,2470.707,13.28,0.058,121.0
2022-03-09T04:04:03,42.805,6.029,0.076,-0.006,0.016,103.0,102.0,102.0,13.4,1505.2,331.3,-0.7,1.8,2470.73,13.28,0.076,94.5
2022-03-09T04:07:03,42.805,6.029,0.074,-0.031,-0.003,102.0,102.0,101.0,13.3,1505.2,331.6,-0.7,1.8,2470.738,13.28,0.08,112.7
2022-03-09T04:10:03,42.805,6.029,0.057,-0.022,0.003,102.0,103.0,101.0,13.3,1505.2,330.8,-0.8,1.8,2470.761,13.28,0.061,111.1
2022-03-09T04:13:03,42.805,6.029,0.088,-0.041,-0.006,103.0,101.0,100.0,13.4,1505.2,329.4,-0.8,1.8,2470.742,13.28,0.097,115.0
2022-03-09T04:16:03,42.805,6.029,0.066,-0.031,-0.011,102.0,101.0,102.0,13.4,1505.2,327.1,-0.8,1.9,2470.776,13.28,0.072,115.2
2022-03-09T04:19:03,42.805,6.029,0.052,-0.021,-0.007,102.0,102.0,102.0,13.4,1505.2,330.3,-0.8,1.8,2470.724,13.28,0.056,112.0
2022-03-09T04:22:03,42.805,6.029,0.048,-0.033,0.0,102.0,101.0,101.0,13.3,1505.2,330.6,-0.7,1.8,2470.718,13.28,0.058,124.5
2022-03-09T04:25:03,42.805,6.029,0.071,-0.037,-0.024,103.0,102.0,101.0,13.4,1505.2,330.8,-0.7,1.8,2470.761,13.28,0.08,117.5
2022-03-09T04:28:03,42.805,6.029,0.06,-0.035,0.005,102.0,103.0,100.0,13.4,1505.2,329.6,-0.7,1.8,2470.718,13.28,0.069,120.3
2022-03-09T04:31:03,42.805,6.029,0.067,-0.024,0.01,103.0,101.0,101.0,13.4,1505.2,329.6,-0.7,1.8,2470.726,13.28,0.071,109.7
2022-03-09T04:34:03,42.805,6.029,0.077,-0.036,-0.004,102.0,102.0,101.0,13.3,1505.2,324.4,-0.8,1.8,2470.761,13.28,0.084,115.1
2022-03-09T04:37:03,42.805,6.029,0.072,-0.052,-0.037,102.0,102.0,101.0,13.4,1505.2,332.6,-0.7,1.8,2470.737,13.28,0.088,125.8
2022-03-09T04:40:03,42.805,6.029,0.082,-0.024,-0.007,102.0,102.0,101.0,13.3,1505.2,323.4,-0.7,1.8,2470.707,13.28,0.085,106.3
2022-03-09T04:43:03,42.805,6.029,0.069,-0.028,-0.01,102.0,103.0,101.0,13.4,1505.2,329.3,-0.8,1.8,2470.76,13.28,0.074,112.1
2022-03-09T04:46:03,42.805,6.029,0.059,-0.029,-0.006,102.0,102.0,100.0,13.4,1505.2,328.5,-0.8,1.8,2470.74,13.28,0.065,116.2
2022-03-09T04:49:03,42.805,6.029,0.071,-0.026,-0.011,102.0,102.0,100.0,13.4,1505.2,325.0,-0.7,1.9,2470.744,13.28,0.075,110.1
2022-03-09T04:52:03,42.805,6.029,0.053,-0.026,0.001,101.0,102.0,101.0,13.4,1505.2,329.7,-0.7,1.8,2470.727,13.28,0.059,116.1
2022-03-09T04:55:03,42.805,6.029,0.077,-0.009,0.038,102.0,104.0,100.0,13.3,1505.2,325.1,-0.8,1.8,2470.736,13.28,0.077,96.7
2022-03-09T04:58:03,42.805,6.029,0.067,-0.029,0.002,102.0,102.0,100.0,13.4,1505.2,329.8,-0.7,1.8,2470.743,13.28,0.073,113.4
2022-03-09T05:04:03,42.805,6.029,0.094,-0.029,-0.021,101.0,102.0,101.0,13.4,1505.2,325.1,-0.8,1.8,2470.71,13.28,0.098,107.1
2022-03-09T05:07:03,42.805,6.029,0.03,-0.018,-0.015,101.0,104.0,101.0,13.4,1505.2,327.1,-0.8,1.8,2470.737,13.28,0.034,121.0
2022-03-09T05:10:03,42.805,6.029,0.088,-0.029,-0.021,102.0,103.0,101.0,13.4,1505.2,329.8,-0.8,1.8,2470.744,13.28,0.092,108.2
2022-03-09T05:13:03,42.805,6.029,0.069,-0.024,0.009,101.0,102.0,101.0,13.4,1505.2,328.2,-0.7,1.8,2470.778,13.28,0.073,109.2
2022-03-09T05:16:03,42.805,6.029,0.071,-0.022,0.01,102.0,102.0,102.0,13.3,1505.2,327.4,-0.7,1.8,2470.729,13.28,0.074,107.2
2022-03-09T05:19:03,42.805,6.029,0.08,-0.048,-0.035,102.0,102.0,100.0,13.4,1505.2,327.8,-0.8,1.8,2470.693,13.28,0.093,121.0
2022-03-09T05:22:03,42.805,6.029,0.046,-0.015,0.001,102.0,102.0,101.0,13.3,1505.2,326.3,-0.8,1.8,2470.737,13.28,0.048,108.1
2022-03-09T05:25:03,42.805,6.029,0.059,-0.015,-0.006,102.0,100.0,101.0,13.4,1505.2,327.8,-0.8,1.8,2470.696,13.28,0.06,104.3
2022-03-09T05:28:03,42.805,6.029,0.081,-0.03,-0.029,101.0,103.0,100.0,13.4,1505.2,326.5,-0.7,1.8,2470.725,13.28,0.086,110.3
2022-03-09T05:31:03,42.805,6.029,0.076,-0.04,-0.001,101.0,102.0,101.0,13.4,1505.2,330.8,-0.7,1.8,2470.717,13.28,0.085,117.8
2022-03-09T05:34:03,42.805,6.029,0.072,-0.036,-0.027,101.0,102.0,101.0,13.3,1505.2,325.0,-0.7,1.8,2470.727,13.28,0.08,116.6
2022-03-09T05:37:03,42.805,6.029,0.058,-0.046,-0.037,103.0,102.0,101.0,13.4,1505.2,331.8,-0.7,1.8,2470.741,13.28,0.074,128.4
2022-03-09T05:40:03,42.805,6.029,0.061,-0.023,-0.02,102.0,101.0,101.0,13.4,1505.2,328.3,-0.8,1.8,2470.723,13.28,0.065,110.7
2022-03-09T05:43:03,42.805,6.029,0.066,-0.024,-0.011,102.0,103.0,101.0,13.4,1505.2,328.7,-0.8,1.8,2470.731,13.28,0.07,110.0
2022-03-09T05:46:03,42.805,6.029,0.083,-0.037,0.012,102.0,102.0,100.0,13.4,1505.2,329.8,-0.7,1.8,2470.742,13.28,0.09,114.0
2022-03-09T05:49:03,42.805,6.029,0.063,-0.023,-0.018,103.0,102.0,101.0,13.3,1505.2,326.7,-0.7,1.8,2470.705,13.28,0.067,110.1
2022-03-09T05:52:03,42.805,6.029,0.059,-0.031,0.022,102.0,101.0,101.0,13.3,1505.2,328.5,-0.8,1.8,2470.718,13.28,0.066,117.7
2022-03-09T05:55:03,42.805,6.029,0.074,-0.031,-0.025,102.0,102.0,101.0,13.4,1505.2,328.4,-0.8,1.8,2470.703,13.28,0.08,112.7
2022-03-09T05:58:03,42.805,6.029,0.047,-0.022,-0.004,103.0,102.0,101.0,13.3,1505.2,326.7,-0.7,1.8,2470.736,13.28,0.051,115.1
2022-03-09T06:04:03,42.805,6.029,0.066,-0.048,0.007,102.0,103.0,100.0,13.4,1505.2,324.6,-0.8,1.8,2470.778,13.28,0.081,126.0
2022-03-09T06:07:03,42.805,6.029,0.062,-0.047,-0.019,104.0,102.0,101.0,13.4,1505.2,328.6,-0.8,1.8,2470.744,13.28,0.077,127.2
2022-03-09T06:10:03,42.805,6.029,0.051,-0.037,-0.001,102.0,101.0,101.0,13.4,1505.2,325.9,-0.7,1.8,2470.751,13.28,0.063,126.0
2022-03-09T06:13:03,42.805,6.029,0.075,-0.03,-0.012,103.0,103.0,101.0,13.3,1505.2,325.6,-0.7,1.8,2470.745,13.28,0.08,111.8
2022-03-09T06:16:03,42.805,6.029,0.073,-0.035,0.0,104.0,102.0,101.0,13.4,1505.2,328.9,-0.8,1.8,2470.718,13.28,0.08,115.6
2022-03-09T06:19:03,42.805,6.029,0.062,-0.041,0.019,102.0,103.0,101.0,13.4,1505.2,330.2,-0.7,1.9,2470.711,13.28,0.074,123.5
2022-03-09T06:22:03,42.805,6.029,0.043,-0.03,-0.039,102.0,103.0,101.0,13.3,1505.2,329.3,-0.7,1.8,2470.736,13.28,0.052,124.9
2022-03-09T06:25:03,42.805,6.029,0.065,-0.026,-0.001,102.0,103.0,101.0,13.3,1505.2,330.4,-0.7,1.8,2470.72,13.28,0.07,111.8
2022-03-09T06:28:03,42.805,6.029,0.079,-0.034,-0.008,102.0,102.0,102.0,13.4,1505.2,327.8,-0.8,1.8,2470.722,13.28,0.086,113.3
2022-03-09T06:31:03,42.805,6.029,0.06,-0.031,-0.024,101.0,103.0,101.0,13.4,1505.2,329.0,-0.8,1.8,2470.711,13.28,0.067,117.3
2022-03-09T06:34:03,42.805,6.029,0.077,-0.04,-0.001,103.0,103.0,101.0,13.4,1505.2,328.4,-0.7,1.8,2470.745,13.28,0.086,117.4
2022-03-09T06:37:03,42.805,6.029,0.053,-0.023,-0.014,104.0,103.0,100.0,13.3,1505.2,324.6,-0.7,1.8,2470.676,13.28,0.057,113.5
2022-03-09T06:40:03,42.805,6.029,0.04,-0.035,-0.01,102.0,103.0,101.0,13.4,1505.2,329.3,-0.8,1.8,2470.712,13.28,0.053,131.2
2022-03-09T06:43:03,42.805,6.029,0.076,-0.033,0.0,102.0,102.0,102.0,13.4,1505.2,324.0,-0.7,1.8,2470.726,13.28,0.082,113.5
2022-03-09T06:46:03,42.805,6.029,0.064,-0.024,0.009,103.0,101.0,101.0,13.4,1505.2,326.8,-0.8,1.8,2470.708,13.28,0.068,110.6
2022-03-09T06:49:03,42.805,6.029,0.048,-0.023,-0.028,104.0,103.0,101.0,13.4,1505.2,326.7,-0.7,1.8,2470.741,13.28,0.053,115.6
2022-03-09T06:52:03,42.805,6.029,0.066,-0.038,-0.017,104.0,100.0,101.0,13.4,1505.2,328.3,-0.8,1.8,2470.686,13.28,0.076,119.9
2022-03-09T06:55:03,42.805,6.029,0.061,-0.037,-0.028,104.0,101.0,102.0,13.4,1505.2,328.1,-0.8,1.9,2470.692,13.28,0.071,121.2
2022-03-09T06:58:03,42.805,6.029,0.06,-0.025,-0.002,102.0,104.0,101.0,13.4,1505.2,327.3,-0.8,1.8,2470.698,13.28,0.064,112.6
2022-03-09T07:04:03,42.805,6.029,0.082,-0.014,-0.006,103.0,102.0,101.0,13.3,1505.2,325.3,-0.7,1.8,2470.765,13.28,0.083,99.7
2022-03-09T07:07:03,42.805,6.029,0.056,-0.047,-0.035,102.0,102.0,101.0,13.4,1505.2,328.9,-0.8,1.9,2470.77,13.28,0.073,130.0
2022-03-09T07:10:03,42.805,6.029,0.036,-0.024,-0.036,102.0,103.0,101.0,13.3,1505.2,331.7,-0.8,1.8,2470.788,13.28,0.043,123.7
2022-03-09T07:13:03,42.805,6.029,0.04,-0.024,0.0,102.0,102.0,101.0,13.3,1505.2,331.6,-0.7,1.8,2470.727,13.28,0.046,121.0
2022-03-09T07:16:03,42.805,6.029,0.059,-0.034,-0.016,101.0,104.0,100.0,13.3,1505.2,323.7,-0.7,1.9,2470.754,13.28,0.068,120.0
2022-03-09T07:19:03,42.805,6.029,0.041,-0.022,-0.051,103.0,102.0,101.0,13.4,1505.2,332.6,-0.7,1.8,2470.746,13.28,0.046,118.2
2022-03-09T07:22:03,42.805,6.029,0.036,-0.008,0.004,102.0,103.0,101.0,13.3,1505.2,331.3,-0.7,1.9,2470.765,13.28,0.036,102.5
2022-03-09T07:25:03,42.805,6.029,0.022,-0.011,0.014,102.0,102.0,101.0,13.3,1505.2,329.5,-0.8,1.8,2470.741,13.28,0.024,116.6
2022-03-09T07:28:03,42.805,6.029,0.042,-0.011,-0.005,103.0,102.0,101.0,13.3,1505.2,328.8,-0.8,1.8,2470.738,13.28,0.043,104.7
2022-03-09T07:31:03,42.805,6.029,0.039,-0.043,-0.012,103.0,102.0,101.0,13.4,1505.2,328.2,-0.8,1.8,2470.756,13.28,0.058,137.8
2022-03-09T07:34:03,42.805,6.029,0.037,-0.048,-0.042,102.0,101.0,102.0,13.4,1505.2,329.1,-0.8,1.8,2470.748,13.28,0.06,142.4
2022-03-09T07:37:03,42.805,6.029,0.032,-0.042,-0.023,102.0,103.0,101.0,13.4,1505.2,331.8,-0.8,1.8,2470.744,13.28,0.052,142.7
2022-03-09T07:40:03,42.805,6.029,0.066,-0.024,0.018,103.0,102.0,101.0,13.4,1505.2,326.5,-0.8,1.8,2470.749,13.28,0.07,110.0
2022-03-09T07:43:03,42.805,6.029,0.047,-0.036,-0.015,102.0,103.0,101.0,13.4,1505.2,323.7,-0.8,1.8,2470.722,13.28,0.059,127.5
2022-03-09T07:46:03,42.805,6.029,0.042,-0.036,-0.021,102.0,101.0,101.0,13.4,1505.2,323.7,-0.8,1.8,2470.72,13.28,0.055,130.6
2022-03-09T07:49:03,42.805,6.029,0.059,-0.02,0.009,102.0,102.0,101.0,13.4,1505.2,322.9,-0.7,1.8,2470.743,13.28,0.062,108.7
2022-03-09T07:52:03,42.805,6.029,0.057,-0.036,0.0,103.0,101.0,101.0,13.4,1505.2,323.0,-0.7,1.8,2470.739,13.28,0.067,122.3
2022-03-09T07:55:03,42.805,6.029,0.052,-0.031,-0.012,102.0,102.0,102.0,13.4,1505.2,331.5,-0.7,1.8,2470.738,13.28,0.06,120.8
2022-03-09T07:58:03,42.805,6.029,0.049,-0.015,0.01,102.0,101.0,102.0,13.4,1505.2,322.9,-0.7,1.8,2470.722,13.28,0.051,107.0
2022-03-09T08:04:03,42.805,6.029,0.052,-0.049,-0.022,103.0,101.0,101.0,13.4,1505.2,330.5,-0.7,1.8,2470.793,13.28,0.071,133.3
2022-03-09T08:07:03,42.805,6.029,0.022,-0.021,-0.008,103.0,101.0,101.0,13.4,1505.2,323.4,-0.8,1.8,2470.79,13.28,0.03,133.7
2022-03-09T08:10:03,42.805,6.029,0.05,-0.043,0.0,101.0,103.0,101.0,13.3,1505.2,325.5,-0.8,1.8,2470.824,13.28,0.065,130.7
2022-03-09T08:13:03,42.805,6.029,0.058,-0.026,-0.027,102.0,102.0,101.0,13.4,1505.2,326.5,-0.8,1.8,2470.779,13.28,0.063,114.1
2022-03-09T08:16:03,42.805,6.029,0.046,-0.039,-0.005,102.0,102.0,101.0,13.4,1505.2,331.6,-0.7,1.8,2470.774,13.28,0.06,130.3
2022-03-09T08:19:03,42.805,6.029,0.054,-0.015,-0.016,100.0,102.0,102.0,13.4,1505.2,329.5,-0.8,1.8,2470.75,13.28,0.056,105.5
2022-03-09T08:22:03,42.805,6.029,0.052,-0.045,-0.001,101.0,102.0,101.0,13.3,1505.2,327.2,-0.7,1.8,2470.759,13.28,0.068,130.9
2022-03-09T08:25:03,42.805,6.029,0.062,-0.032,0.006,101.0,102.0,101.0,13.4,1505.2,331.0,-0.8,1.9,2470.75,13.28,0.069,117.3
2022-03-09T08:28:03,42.805,6.029,0.044,-0.027,-0.013,102.0,101.0,101.0,13.4,1505.2,327.1,-0.7,1.8,2470.762,13.28,0.051,121.5
2022-03-09T08:31:03,42.805,6.029,0.035,-0.021,0.005,100.0,103.0,102.0,13.3,1505.2,329.4,-0.8,1.8,2470.752,13.28,0.04,121.0
2022-03-09T08:34:03,42.805,6.029,0.04,-0.033,-0.036,102.0,102.0,101.0,13.3,1505.2,326.1,-0.8,1.8,2470.79,13.28,0.051,129.5
2022-03-09T08:37:03,42.805,6.029,0.074,-0.021,0.02,101.0,102.0,101.0,13.4,1505.2,323.4,-0.8,1.9,2470.781,13.28,0.076,105.8
2022-03-09T08:40:03,42.805,6.029,0.023,-0.026,0.023,102.0,102.0,101.0,13.4,1505.2,331.9,-0.8,1.8,2470.78,13.28,0.034,138.5
2022-03-09T08:43:03,42.805,6.029,0.046,-0.017,0.011,102.0,104.0,100.0,13.4,1505.2,323.0,-0.8,1.8,2470.779,13.28,0.049,110.3
2022-03-09T08:46:03,42.805,6.029,0.033,-0.011,0.0,102.0,102.0,101.0,13.4,1505.2,325.0,-0.7,1.8,2470.787,13.28,0.034,108.4
2022-03-09T08:49:03,42.805,6.029,0.044,-0.013,0.006,103.0,101.0,101.0,13.4,1505.2,326.4,-0.8,1.8,2470.77,13.28,0.045,106.5
2022-03-09T08:52:03,42.805,6.029,0.059,-0.035,-0.019,103.0,100.0,101.0,13.4,1505.2,323.8,-0.8,1.8,2470.825,13.28,0.068,120.7
2022-03-09T08:55:03,42.805,6.029,0.058,-0.017,0.021,103.0,102.0,102.0,13.3,1505.2,323.9,-0.7,1.8,2470.801,13.28,0.06,106.3
2022-03-09T08:58:03,42.805,6.029,0.045,-0.018,0.0,101.0,102.0,101.0,13.3,1505.2,323.1,-0.8,1.8,2470.786,13.28,0.048,111.8
2022-03-09T09:04:03,42.805,6.029,0.083,-0.013,0.019,102.0,102.0,101.0,13.4,1505.2,325.9,-0.8,1.8,2470.84,13.28,0.084,98.9
2022-03-09T09:07:03,42.805,6.029,0.049,-0.02,0.0,102.0,102.0,101.0,13.3,1505.2,326.8,-0.8,1.8,2470.817,13.28,0.052,112.2
2022-03-09T09:10:03,42.805,6.029,0.041,-0.009,0.007,101.0,102.0,101.0,13.4,1505.2,323.0,-0.7,1.8,2470.801,13.28,0.041,102.4
2022-03-09T09:13:03,42.805,6.029,0.054,-0.028,-0.004,103.0,102.0,101.0,13.3,1505.2,330.5,-0.8,1.8,2470.809,13.28,0.06,117.4
2022-03-09T09:16:03,42.805,6.029,0.065,-0.014,0.01,103.0,102.0,102.0,13.4,1505.2,329.3,-0.8,1.8,2470.805,13.28,0.066,102.2
2022-03-09T09:19:03,42.805,6.029,0.054,-0.036,0.002,103.0,101.0,102.0,13.3,1505.2,331.6,-0.8,1.8,2470.805,13.28,0.064,123.7
2022-03-09T09:22:03,42.805,6.029,0.042,-0.023,0.016,102.0,101.0,101.0,13.4,1505.2,324.4,-0.8,1.9,2470.811,13.28,0.047,118.7
2022-03-09T09:25:03,42.805,6.029,0.047,-0.036,-0.012,103.0,102.0,101.0,13.3,1505.2,326.6,-0.8,1.8,2470.791,13.28,0.059,127.5
2022-03-09T09:28:03,42.805,6.029,0.053,-0.027,-0.002,102.0,102.0,101.0,13.4,1505.2,328.3,-0.8,1.9,2470.802,13.28,0.059,117.0
2022-03-09T09:31:03,42.805,6.029,0.058,-0.053,-0.009,102.0,102.0,101.0,13.4,1505.2,329.1,-0.7,1.8,2470.8,13.28,0.078,132.4
2022-03-09T09:34:03,42.805,6.029,0.028,-0.021,0.012,102.0,103.0,101.0,13.4,1505.2,332.0,-0.7,1.8,2470.78,13.28,0.035,126.9
2022-03-09T09:37:03,42.805,6.029,0.043,-0.025,-0.005,102.0,103.0,101.0,13.3,1505.2,324.9,-0.7,1.8,2470.77,13.28,0.049,120.2
2022-03-09T09:40:03,42.805,6.029,0.058,-0.025,-0.002,102.0,103.0,101.0,13.3,1505.2,326.0,-0.8,1.8,2470.784,13.28,0.063,113.3
2022-03-09T09:43:03,42.805,6.029,0.047,-0.014,0.017,103.0,102.0,101.0,13.3,1505.2,324.0,-0.8,1.8,2470.785,13.28,0.049,106.6
2022-03-09T09:46:03,42.805,6.029,0.053,-0.004,-0.007,102.0,102.0,101.0,13.4,1505.2,327.1,-0.7,1.8,2470.83,13.28,0.053,94.3
2022-03-09T09:49:03,42.805,6.029,0.027,-0.023,0.008,101.0,103.0,101.0,13.4,1505.2,326.4,-0.7,1.9,2470.833,13.28,0.035,130.4
2022-03-09T09:52:03,42.805,6.029,0.054,-0.025,-0.023,102.0,102.0,101.0,13.4,1505.2,327.1,-0.8,1.8,2470.819,13.28,0.059,114.8
2022-03-09T09:55:03,42.805,6.029,0.045,-0.029,0.036,103.0,103.0,101.0,13.4,1505.2,325.2,-0.8,1.8,2470.793,13.28,0.053,122.8